This is the latest recevied weather packets stored in our database for station/object VE3VGJ. If no packets are shown the sender has not sent any weather packets the latest 10 day(s).
| Time | Temp. | Humidity | Pressure | Rain* | Wind** | Luminosity | Snow |
|---|---|---|---|---|---|---|---|
| 1777893437 | 8.33° C | 76% | 1005.1 hPa | 0 mm | - | 60 W/m² | - |
| 1777893134 | 7.78° C | 77% | 1005.3 hPa | 0 mm | - | 56 W/m² | - |
| 1777892830 | 7.78° C | 77% | 1005.3 hPa | 0 mm | - | 52 W/m² | - |
| 1777892527 | 7.78° C | 78% | 1005.3 hPa | 0 mm | - | 48 W/m² | - |
| 1777892222 | 7.78° C | 78% | 1005.2 hPa | 0 mm | - | 43 W/m² | - |
| 1777891919 | 7.22° C | 79% | 1005.2 hPa | 0 mm | - | 39 W/m² | - |
| 1777891617 | 7.22° C | 79% | 1005.1 hPa | 0 mm | - | 34 W/m² | - |
| 1777891313 | 7.22° C | 79% | 1005.2 hPa | 0 mm | - | 28 W/m² | - |
| 1777891008 | 7.22° C | 79% | 1005.1 hPa | 0 mm | - | 24 W/m² | - |
| 1777890708 | 7.22° C | 78% | 1005.2 hPa | 0 mm | - | 20 W/m² | - |
| 1777890404 | 7.78° C | 77% | 1005.3 hPa | 0 mm | - | 16 W/m² | - |
| 1777890100 | 7.78° C | 77% | 1005 hPa | 0 mm | - | 12 W/m² | - |
| 1777889798 | 7.78° C | 78% | 1005.2 hPa | 0 mm | - | 8 W/m² | - |
| 1777889495 | 7.78° C | 78% | 1005.2 hPa | 0 mm | - | 5 W/m² | - |
| 1777889192 | 7.78° C | 78% | 1005 hPa | 0 mm | - | 3 W/m² | - |
| 1777888891 | 7.78° C | 77% | 1005.1 hPa | 0 mm | - | 1 W/m² | - |
| 1777888586 | 7.78° C | 77% | 1005.2 hPa | 0 mm | - | 0 W/m² | - |
| 1777888282 | 8.33° C | 77% | 1005.3 hPa | 0 mm | - | 0 W/m² | - |
| 1777887979 | 8.33° C | 76% | 1005.2 hPa | 0 mm | - | 0 W/m² | - |
| 1777887677 | 8.33° C | 76% | 1005.4 hPa | 0 mm | - | 0 W/m² | - |
| 1777887373 | 8.33° C | 74% | 1005.5 hPa | 0 mm | - | 0 W/m² | - |
| 1777887069 | 8.89° C | 74% | 1005.5 hPa | 0 mm | - | 0 W/m² | - |
| 1777886765 | 8.89° C | 73% | 1005.3 hPa | 0 mm | - | 0 W/m² | - |
| 1777886461 | 8.89° C | 73% | 1005.2 hPa | 0 mm | - | 0 W/m² | - |
| 1777886159 | 8.89° C | 73% | 1005.5 hPa | 0 mm | - | 0 W/m² | - |
* Rain latest hour (hover to see other rain measurements)
** Current wind speed in m/s (hover to see current wind gust speed)